sat.trackr.live / text

‹ back to catalog

STARLINK-34810

NORAD 65068 · 2025-165N

PAYLOAD ACTIVE UNKNOWN

§ Identity

Operator
Country
US
Launch date
2025-07-31
Launch site
AFWTR
Launch vehicle
Mass (kg)
RCS (m²)

Purposes: comms

External: N2YO · Heavens-Above · Gunter

§ Orbital elements

Epoch: 2026-05-25T03:40:32.138400Z

Period
95.64 min
Inclination
97.4483°
Eccentricity
0.0002159
Mean motion
15.05658384 rev/d
Perigee alt
548.0 km
Apogee alt
551.0 km
Semi-major
6,927.6 km
B*
4.3771e-4
RAAN
222.1937°
Arg perigee
143.5310°
Mean anomaly
216.6065°
Rev number
4,629

§ Raw data

STARLINK-348101 65068U 25165N   26145.15314975  .00006264  00000+0  43771-3 0  99992 65068  97.4483 222.1937 0002159 143.5310 216.6065 15.05658384 46294

JSON: /api/v1/satellites/65068 · /tle

For live sub-satellite position, see the globe view (requires WebGL).

§ Visibility from observer

Set your observer location to see the next 7 days of passes ≥ 10°. The values pass through the URL so the page stays shareable.

No JS? Fill the form by hand. The geolocation button needs JavaScript.